Overview Statistics Trail Chart Weather Telemetry Raw packets
 

This is the latest recevied weather packets stored in our database for station/object TB1YZC-13. If no packets are shown the sender has not sent any weather packets the latest 10 day(s).

<< 30 31 32 33 34 35 36 >>
Time Temp. Humidity Pressure Rain* Wind** Luminosity Snow
1788194990 22.78° C 78% 1017.9 hPa - - - -
1788194388 23.33° C 77% 1017.8 hPa - - - -
1788193784 23.33° C 76% 1017.9 hPa - - - -
1788193180 23.33° C 73% 1017.8 hPa - - - -
1788192577 23.89° C 71% 1017.8 hPa - - - -
1788191974 23.89° C 69% 1017.8 hPa - - - -
1788191371 24.44° C 65% 1017.9 hPa - - - -
1788190768 24.44° C 62% 1017.9 hPa - - - -
1788190165 25° C 63% 1017.8 hPa - - - -
1788189562 25.56° C 61% 1017.7 hPa - - - -
1788188958 25.56° C 59% 1017.6 hPa - - - -
1788188355 25.56° C 60% 1017.7 hPa - - - -
1788187752 26.11° C 58% 1017.7 hPa - - - -
1788187148 26.11° C 58% 1017.7 hPa - - - -
1788186545 26.11° C 54% 1017.8 hPa - - - -
1788185943 26.67° C 56% 1017.7 hPa - - - -
1788185339 28.89° C 46% 1017.4 hPa - - - -
1788184736 30° C 41% 1017.4 hPa - - - -
1788184133 30° C 42% 1017.4 hPa - - - -
1788183529 30° C 43% 1017.4 hPa - - - -
1788182926 29.44° C 42% 1017.5 hPa - - - -
1788182323 30.56° C 41% 1017.4 hPa - - - -
1788181720 30° C 42% 1017.5 hPa - - - -
1788181117 30° C 42% 1017.5 hPa - - - -
1788180514 30.56° C 41% 1017.6 hPa - - - -

* Rain since midnight (hover to see other rain measurements)
** Current wind speed in m/s (hover to see current wind gust speed)